Weather History for KENL - August, 2013

Change the Weather History Date:

Thursday, August 1, 2013

  Actual Average (KSLO) Record (KSLO)
Temperature  
Mean Temperature 76 °F -  
Max Temperature 86 °F 87 °F 98 °F (1987)
Min Temperature 65 °F 63 °F 52 °F (1992)
Cooling Degree Days 10    
Growing Degree Days 26 (Base 50)    
Moisture  
Dew Point 66 °F    
Average Humidity 74    
Maximum Humidity 95    
Minimum Humidity 41    
Precipitation  
Precipitation 0.00 in - - ()
Sea Level Pressure  
Sea Level Pressure 30.04 in    
Wind  
Wind Speed 2 mph (NW)    
Max Wind Speed 8 mph    
Max Gust Speed -    
Visibility 7 miles    
Events Fog    
Averages and records for this station are not official NWS values.
T = Trace of Precipitation, MM = Missing Value Source: NWS Daily Summary

Daily Weather History Graph

Daily Weather History Graph

Search for Another Location

Airport or City:

Trip Planner

Search our weather history database for the weather conditions in past years. The results will help you decide how hot, cold, wet, or windy it might be!

Date:

Astronomy

Aug. 01, 2013 Rise Set
Actual Time 5:58 AM CDT 8:06 PM CDT
Civil Twilight 5:28 AM CDT 8:35 PM CDT
Nautical Twilight 4:52 AM CDT 9:11 PM CDT
Astronomical Twilight 4:13 AM CDT 9:50 PM CDT
Moon 1:34 AM CDT (8/1) 4:14 PM CDT (8/1)
Length of Visible Light 15h 06m
Length of Day
14h 07m
Waning Crescent, 23% of the Moon is Illuminated
Aug 1
Waning Crescent
Aug 6
New
Aug 14
First Quarter
Aug 20
Full
Aug 28
Last Quarter

Hourly Weather History & Observations

Time (CDT) Temp. Heat Index Dew Point Humidity Pressure Visibility Wind Dir Wind Speed Gust Speed Precip Events Conditions
12:15 AM 70.5 °F - 67.5 °F 90% 30.03 in 5.0 mi Calm Calm - N/A   Clear
12:35 AM 69.1 °F - 66.4 °F 91% 30.03 in 5.0 mi Calm Calm - N/A   Clear
12:55 AM 68.4 °F - 66.2 °F 93% 30.03 in 4.0 mi Calm Calm - N/A   Clear
1:15 AM 68.0 °F - 65.7 °F 92% 30.03 in 2.5 mi Calm Calm - N/A   Clear
1:35 AM 67.6 °F - 65.7 °F 93% 30.03 in 0.8 mi Calm Calm - N/A   Mist
1:55 AM 67.1 °F - 65.3 °F 94% 30.03 in 2.0 mi Calm Calm - N/A   Clear
2:15 AM 66.7 °F - 64.8 °F 93% 30.03 in 1.0 mi SW 3.5 mph - N/A   Mist
2:35 AM 67.3 °F - 65.5 °F 94% 30.03 in 2.0 mi WSW 3.5 mph - N/A   Clear
2:55 AM 67.1 °F - 65.3 °F 94% 30.03 in 1.5 mi WSW 3.5 mph - N/A   Mostly Cloudy
3:15 AM 67.6 °F - 65.8 °F 94% 30.03 in 0.2 mi Calm Calm - N/A Fog Fog
3:35 AM 67.5 °F - 65.7 °F 94% 30.03 in 0.2 mi Calm Calm - N/A Fog Fog
3:55 AM 67.5 °F - 65.7 °F 94% 30.03 in 0.2 mi West 3.5 mph - N/A Fog Fog
4:15 AM 67.1 °F - 65.3 °F 94% 30.03 in 0.5 mi Calm Calm - N/A Fog Fog
4:35 AM 67.1 °F - 65.3 °F 94% 30.03 in 0.5 mi Calm Calm - N/A Fog Fog
4:55 AM 66.7 °F - 64.9 °F 94% 30.03 in 0.5 mi Calm Calm - N/A Fog Fog
5:15 AM 66.2 °F - 64.6 °F 94% 30.03 in 0.5 mi Calm Calm - N/A Fog Fog
5:35 AM 65.7 °F - 64.0 °F 94% 30.03 in 2.0 mi Calm Calm - N/A   Scattered Clouds
5:55 AM 65.3 °F - 63.5 °F 94% 30.04 in 2.5 mi Calm Calm - N/A   Clear
6:15 AM 65.7 °F - 64.0 °F 94% 30.05 in 2.0 mi Calm Calm - N/A   Clear
6:35 AM 66.9 °F - 65.5 °F 95% 30.05 in 2.0 mi Calm Calm - N/A   Clear
6:55 AM 68.9 °F - 67.1 °F 94% 30.05 in 2.5 mi Calm Calm - N/A   Clear
7:15 AM 69.8 °F - 68.0 °F 94% 30.05 in 3.0 mi Calm Calm - N/A   Clear
7:35 AM 70.7 °F - 68.7 °F 93% 30.05 in 4.0 mi NW 3.5 mph - N/A   Clear
7:55 AM 72.1 °F - 68.9 °F 89% 30.06 in 7.0 mi NW 5.8 mph - N/A   Clear
8:15 AM 73.2 °F - 68.7 °F 86% 30.06 in 10.0 mi WNW 4.6 mph - N/A   Clear
8:35 AM 75.0 °F - 68.9 °F 81% 30.07 in 10.0 mi WNW 5.8 mph - N/A   Clear
8:55 AM 76.1 °F - 69.1 °F 79% 30.08 in 10.0 mi NW 5.8 mph - N/A   Clear
9:15 AM 77.5 °F - 69.8 °F 77% 30.08 in 10.0 mi WNW 4.6 mph - N/A   Clear
9:35 AM 77.9 °F - 69.3 °F 75% 30.07 in 10.0 mi NNW 3.5 mph - N/A   Clear
9:55 AM 79.0 °F - 69.3 °F 72% 30.07 in 10.0 mi NW 4.6 mph - N/A   Clear
10:15 AM 79.3 °F - 69.3 °F 71% 30.08 in 10.0 mi NNW 3.5 mph - N/A   Clear
10:35 AM 80.2 °F 83.2 °F 69.1 °F 69% 30.08 in 10.0 mi NNW 5.8 mph - N/A   Clear
10:55 AM 81.7 °F 84.9 °F 69.1 °F 65% 30.08 in 10.0 mi NW 5.8 mph - N/A   Clear
11:15 AM 81.1 °F 83.4 °F 66.7 °F 61% 30.08 in 10.0 mi North 4.6 mph - N/A   Clear
11:35 AM 83.1 °F 86.3 °F 68.2 °F 61% 30.08 in 10.0 mi NW 4.6 mph - N/A   Clear
11:55 AM 82.9 °F 85.6 °F 67.5 °F 59% 30.08 in 10.0 mi NNW 4.6 mph - N/A   Clear
12:15 PM 82.8 °F 85.5 °F 67.5 °F 60% 30.08 in 10.0 mi Calm Calm - N/A   Clear
12:35 PM 84.6 °F 87.1 °F 66.7 °F 55% 30.08 in 10.0 mi WNW 6.9 mph - N/A   Clear
12:55 PM 84.6 °F 86.8 °F 66.4 °F 54% 30.07 in 10.0 mi NW 6.9 mph - N/A   Clear
1:15 PM 84.4 °F 86.3 °F 65.5 °F 53% 30.07 in 10.0 mi NW 8.1 mph - N/A   Clear
1:35 PM 84.7 °F 85.9 °F 63.5 °F 49% 30.06 in 10.0 mi WNW 6.9 mph - N/A   Clear
1:55 PM 85.3 °F 86.8 °F 64.9 °F 50% 30.06 in 10.0 mi NNW 8.1 mph - N/A   Clear
2:15 PM 85.8 °F 86.6 °F 63.1 °F 46% 30.05 in 10.0 mi WNW 6.9 mph - N/A   Clear
2:35 PM 85.8 °F 86.3 °F 62.1 °F 45% 30.05 in 10.0 mi North 3.5 mph - N/A   Clear
2:55 PM 85.6 °F 85.9 °F 61.7 °F 44% 30.05 in 10.0 mi WNW 6.9 mph - N/A   Clear
3:15 PM 85.6 °F 85.9 °F 61.2 °F 44% 30.05 in 10.0 mi WNW 5.8 mph - N/A   Clear
3:35 PM 85.6 °F 86.1 °F 61.9 °F 45% 30.04 in 10.0 mi NNW 5.8 mph - N/A   Clear
3:55 PM 84.4 °F 85.0 °F 62.2 °F 47% 30.04 in 10.0 mi NNW 4.6 mph - N/A   Clear
4:15 PM 86.4 °F 86.5 °F 61.7 °F 43% 30.04 in 10.0 mi North 6.9 mph - N/A   Clear
4:35 PM 85.1 °F 85.2 °F 60.8 °F 44% 30.03 in 10.0 mi Calm Calm - N/A   Clear
4:55 PM 85.5 °F 85.2 °F 60.1 °F 42% 30.03 in 10.0 mi North 4.6 mph - N/A   Clear
5:15 PM 86.4 °F 86.1 °F 60.3 °F 41% 30.02 in 10.0 mi NW 5.8 mph - N/A   Clear
5:35 PM 85.1 °F 85.2 °F 61.0 °F 44% 30.02 in 10.0 mi North 5.8 mph - N/A   Clear
5:55 PM 85.3 °F 85.4 °F 60.8 °F 44% 30.01 in 10.0 mi Calm Calm - N/A   Clear
6:15 PM 84.9 °F 85.2 °F 61.2 °F 45% 30.01 in 10.0 mi NNW 3.5 mph - N/A   Clear
6:35 PM 84.2 °F 84.8 °F 62.1 °F 47% 30.00 in 10.0 mi NNW 3.5 mph - N/A   Clear
6:55 PM 84.0 °F 84.5 °F 62.1 °F 47% 30.00 in 10.0 mi Calm Calm - N/A   Clear
7:15 PM 82.2 °F 84.2 °F 65.7 °F 57% 30.01 in 10.0 mi Calm Calm - N/A   Clear
7:35 PM 80.8 °F 82.8 °F 65.8 °F 60% 30.02 in 10.0 mi Calm Calm - N/A   Clear
7:55 PM 76.5 °F - 68.9 °F 77% 30.02 in 10.0 mi Calm Calm - N/A   Clear
8:15 PM 74.3 °F - 68.4 °F 82% 30.01 in 10.0 mi Calm Calm - N/A   Clear
8:35 PM 72.7 °F - 69.1 °F 88% 30.01 in 10.0 mi Calm Calm - N/A   Clear
8:55 PM 71.6 °F - 67.8 °F 88% 30.01 in 10.0 mi Calm Calm - N/A   Clear
9:15 PM 70.5 °F - 67.5 °F 90% 30.02 in 10.0 mi Calm Calm - N/A   Clear
9:35 PM 70.0 °F - 67.1 °F 91% 30.02 in 10.0 mi Calm Calm - N/A   Clear
9:55 PM 69.4 °F - 66.6 °F 91% 30.01 in 10.0 mi Calm Calm - N/A   Clear
10:15 PM 68.9 °F - 66.2 °F 91% 30.02 in 10.0 mi Calm Calm - N/A   Clear
10:35 PM 68.5 °F - 66.2 °F 92% 30.02 in 10.0 mi Calm Calm - N/A   Clear
10:55 PM 68.2 °F - 65.8 °F 92% 30.02 in 10.0 mi Calm Calm - N/A   Clear
11:15 PM 67.3 °F - 64.9 °F 92% 30.02 in 10.0 mi Calm Calm - N/A   Clear
11:35 PM 67.1 °F - 64.8 °F 92% 30.02 in 10.0 mi Calm Calm - N/A   Clear
11:55 PM 67.1 °F - 64.9 °F 93% 30.00 in 10.0 mi Calm Calm - N/A   Clear